Location: Buchberg
(46.9333°N, 15.8500°E)
Time: 04:00:57
(UTC+00:00)

ERS-2 - Pass Details

Date: 14 July 2020
Orbit: 494 x 498 km, 98.5° (Epoch: 11 August)

Event Time Altitude Azimuth Distance (km) Brightness Sun altitude
Rises 02:28:19 0° 171° (S) 2,568 5.4 -7.3°
Reaches altitude 10° 02:30:24 10° 174° (S) 1,690 4.5 -7.0°
Maximum altitude 02:34:00 66° 257° (WSW) 545 2.1 -6.5°
Drops below altitude 10° 02:37:39 10° 340° (NNW) 1,703 5.1 -6.1°
Sets 02:39:45 0° 344° (NNW) 2,590 6.1 -5.8°
